星链-36686(STARLINK-36686)

导读

STARLINK-36686(NORAD编号68719)是SpaceX星链(Starlink)星座中的一颗低轨互联网通信卫星,隶属于SpaceX公司主导的星链卫星互联网项目。星链项目旨在构建全球覆盖的低轨卫星互联网系统,为全球提供低成本、高带宽的互联网接入服务。 该卫星运行于近地轨道,作为星链星座的组成部分,遵循SpaceX整体星座部署规划,2026年SpaceX计划将包含大量星链卫星在内的4400颗卫星轨道高度从550公里降至480公里,以提升太空安全,减少太空碎片风险,STARLINK-36686也将遵循相关轨道调整安排,服务于全球卫星互联网通信网络。

Basic Information
目录编号:
68719
目录名称:
STARLINK-36686
国际标识:
2026-081W
轨道中心:
EARTH
卫星名称:
星链-36686
卫星全名:
星链-36686(STARLINK-36686)
卫星状态:
在轨 (已飞行144 天)
发射日期:
2026-04-14 UTC
国别 :
美国 (US)
星等 :
--
Orbit Information
数据来源 国际轨道数据
星历时间: 2026-09-05T00:37:31+0800
12小时前
查看轨道信息
半长轴: 6840.842km
偏心率: 0.0001298
轨道倾角: 53.159°
近地点辐角 104.880°
升交点赤经 279.466°
平近点角 255.234°
近地点: 461.817km
远地点: 463.593km
周期: 93.848分钟
每日圈数: 15.343995
Detailed Information
固有亮度:
5
最大亮度:
2.5
卫星平台:
Starlink V1.0
覆盖范围:
全球
运营商:
太空探索技术公司
运营商所在国:
美国
制造商(研发单位):
太空探索技术公司
制造商所在国:
美国
使用方式:
暂无
Satellite Introduction
Starlink 计划是 SpaceX 推出的全球卫星互联网项目,通过发射低轨道卫星,为全球尤其是偏远地区提供高速、低延迟的互联网服务。自 2019 年起,Starlink 已部署数千颗卫星,旨在缩小全球数字鸿沟,推动互联网普及。该项目还为军事、航空等行业提供通信支持,带来广泛经济效益。
2D Orbit Map
3D Orbit Map
Orbit Altitude Analysis Chart
Orbit Inclination Analysis Chart
Orbit Comprehensive Analysis Chart
View Comprehensive Chart
Conjunction Data List
Event ID Objects TCA Miss Dist (km) Collision Risk Probability Collision Risk Index (CRI) Action
CDM_260906-032206-154806-871921
2026-09-06T
03:22:48+0000
0.585 km
远距离
4.201313E-5 中风险 0.67
CDM_260905-215406-154806-871921
2026-09-05T
21:54:31+0000
0.608 km
远距离
3.737561E-5 中风险 0.66
CDM_260906-045606-154806-871921
2026-09-06T
04:56:35+0000
1.356 km
极远距离
2.633214E-6 低风险 0.43
CDM_260906-174506-475006-871921
2026-09-06T
17:45:13+0000
2.293 km
极远距离
1.807737E-6 低风险 0.4
CDM_260905-232806-154806-871921
2026-09-05T
23:28:18+0000
1.589 km
极远距离
1.631321E-6 低风险 0.39
CDM_260905-121805-361906-871921
2026-09-05T
12:18:25+0000
2.730 km
极远距离
1.306075E-6 低风险 0.37
CDM_260905-094405-315606-871921
2026-09-05T
09:44:32+0000
2.988 km
极远距离
1.193997E-6 低风险 0.37
CDM_260905-202006-154806-871921
2026-09-05T
20:20:43+0000
2.111 km
极远距离
8.105259E-7 极低风险 0.33
CDM_260906-163805-177906-871921
2026-09-06T
16:38:54+0000
2.686 km
极远距离
6.99742E-7 极低风险 0.32
CDM_260906-014906-154806-871921
2026-09-06T
01:49:00+0000
2.452 km
极远距离
6.188763E-7 极低风险 0.31